Find Yunhai-2 02 zu 04 xing

NORAD ID: 59283 Int'l Des: 2024-052 Owner: CASC Country: CN operational
LEOCIRCULAR

現在のビュー

3D地球を読み込み中...

About Yunhai-2 02 zu 04 xing

Yunhai-2 02 zu 04 xing (NORAD 59283) is a satellite launched Mar 21, 2024 by CASC of CN. It operates in LEO, CIRCULAR orbit with a mass of 100.00 kg.

次回通過

Passes for default location (London). Set your location on the main map for personalized predictions.

高度履歴

Loading altitude history...

軌道要素

1 59283U 24052D 26195.18344666 .00000002 00000-0 65196-4 0 9994
2 59283 50.0062 147.9458 0004871 317.2517 42.8018 14.28004854122257
Epoch: Jul 14, 2026 • Age: 11 hours

現在のステータス

高度 811.8 km
遠地点 / 近地点 N/A
速度 7.45 km/s
衛星直下点 -43.26°S, 149.03°W
打ち上げ日 Mar 21, 2024
運用期間 2.3 years
タイプ other

技術仕様

分類 Payload
質量 100.00 kg
乾燥質量 100.00 kg
総質量 100.00 kg
長さ 0.50 m
直径 0.20 m
スパン 1.00 m
形状 Box + 2 pan
製造者 DFHS
バスタイプ YH-2
フェーズステータス In Orbit
所有者/国 CASC/CN

Most Searched